| time (UTC) | temp F | wind direction | speed MPH | gust MPH | rain 1hr in | rain 24hr in | rain mn in | humidity % | barometer mb |
| 20260904213559 | 81 | 291 | 0.0 | 0.0 | 0.00 | 0.00 | 0.12 | 67 | 1006.7 |
| 20260904213103 | 81 | 291 | 0.0 | 0.0 | 0.00 | 0.00 | 0.12 | 66 | 1006.7 |
| 20260904212607 | 81 | 291 | 0.0 | 0.0 | 0.00 | 0.00 | 0.12 | 66 | 1006.9 |
| 20260904212058 | 81 | 291 | 0.0 | 0.0 | 0.00 | 0.00 | 0.12 | 65 | 1006.9 |
| 20260904211613 | 81 | 291 | 0.0 | 0.0 | 0.00 | 0.00 | 0.12 | 64 | 1006.9 |
| 20260904211010 | 81 | 291 | 0.0 | 0.0 | 0.00 | 0.00 | 0.11 | 64 | 1006.8 |
| 20260904210600 | 82 | 291 | 0.0 | 0.0 | 0.00 | 0.00 | 0.11 | 63 | 1006.8 |
| 20260904210104 | 82 | 291 | 0.0 | 0.0 | 0.00 | 0.00 | 0.11 | 63 | 1006.8 |
| 20260904205607 | 82 | 291 | 0.0 | 0.0 | 0.00 | 0.00 | 0.11 | 62 | 1006.5 |
| 20260904205006 | 82 | 291 | 0.0 | 0.0 | 0.00 | 0.00 | 0.11 | 62 | 1006.5 |
| 20260904204557 | 82 | 291 | 0.0 | 0.0 | 0.00 | 0.00 | 0.11 | 60 | 1006.5 |
| 20260904204106 | 83 | 291 | 0.0 | 0.0 | 0.00 | 0.00 | 0.11 | 60 | 1006.6 |
| 20260904203502 | 83 | 291 | 0.0 | 0.0 | 0.00 | 0.00 | 0.11 | 59 | 1006.6 |
| 20260904203101 | 83 | 291 | 0.0 | 0.0 | 0.00 | 0.00 | 0.11 | 60 | 1006.6 |
| 20260904202559 | 83 | 291 | 0.0 | 0.0 | 0.00 | 0.00 | 0.11 | 60 | 1006.6 |
| 20260904202103 | 83 | 291 | 0.0 | 0.0 | 0.00 | 0.00 | 0.11 | 61 | 1006.6 |
| 20260904201606 | 83 | 291 | 0.0 | 0.0 | 0.00 | 0.00 | 0.11 | 60 | 1006.6 |
| 20260904201003 | 83 | 271 | 0.0 | 0.0 | 0.00 | 0.00 | 0.11 | 60 | 1006.8 |
| 20260904200600 | 83 | 271 | 0.0 | 0.0 | 0.00 | 0.00 | 0.11 | 60 | 1006.8 |
| 20260904200114 | 83 | 298 | 0.0 | 0.0 | 0.00 | 0.00 | 0.11 | 62 | 1006.8 |
| 20260904195604 | 83 | 298 | 0.0 | 0.0 | 0.00 | 0.00 | 0.11 | 63 | 1006.9 |
| 20260904195056 | 82 | 298 | 0.0 | 0.0 | 0.00 | 0.00 | 0.11 | 62 | 1006.9 |
| 20260904194505 | 82 | 298 | 0.0 | 0.0 | 0.00 | 0.00 | 0.10 | 63 | 1006.9 |
| 20260904194057 | 82 | 298 | 0.0 | 0.0 | 0.00 | 0.00 | 0.10 | 62 | 1007.3 |
| 20260904193602 | 82 | 298 | 0.0 | 0.0 | 0.00 | 0.00 | 0.10 | 61 | 1007.3 |
| 20260904193104 | 83 | 298 | 0.0 | 0.0 | 0.00 | 0.00 | 0.10 | 61 | 1007.3 |
| 20260904192501 | 83 | 298 | 0.0 | 0.0 | 0.00 | 0.00 | 0.10 | 61 | 1007.4 |
| 20260904192004 | 83 | 298 | 0.0 | 0.0 | 0.00 | 0.00 | 0.10 | 61 | 1007.4 |
| 20260904191558 | 83 | 298 | 0.0 | 0.0 | 0.00 | 0.00 | 0.10 | 61 | 1007.4 |
| 20260904191049 | 83 | 318 | 0.0 | 0.0 | 0.00 | 0.00 | 0.10 | 60 | 1007.5 |
| 20260904190551 | 83 | 319 | 0.0 | 0.0 | 0.00 | 0.00 | 0.10 | 59 | 1007.5 |
| 20260904190059 | 83 | 277 | 0.0 | 0.0 | 0.00 | 0.00 | 0.10 | 58 | 1007.5 |
| 20260904185603 | 83 | 270 | 0.0 | 0.0 | 0.00 | 0.00 | 0.10 | 60 | 1007.6 |
| 20260904185002 | 83 | 296 | 0.0 | 0.0 | 0.00 | 0.00 | 0.10 | 58 | 1007.6 |
| 20260904184504 | 83 | 289 | 0.0 | 0.0 | 0.00 | 0.00 | 0.10 | 59 | 1007.6 |
| 20260904184058 | 83 | 312 | 0.0 | 0.0 | 0.00 | 0.00 | 0.09 | 59 | 1007.9 |
| 20260904183605 | 83 | 337 | 0.0 | 0.0 | 0.00 | 0.00 | 0.09 | 59 | 1007.9 |
| 20260904183004 | 84 | 309 | 0.0 | 0.0 | 0.00 | 0.00 | 0.09 | 59 | 1007.9 |
| 20260904182559 | 84 | 309 | 0.0 | 0.0 | 0.00 | 0.00 | 0.09 | 59 | 1007.9 |
| 20260904182051 | 84 | 309 | 0.0 | 0.0 | 0.00 | 0.00 | 0.09 | 58 | 1007.9 |
| 20260904181556 | 84 | 311 | 0.0 | 0.0 | 0.00 | 0.00 | 0.09 | 58 | 1007.9 |
| 20260904181059 | 84 | 263 | 0.0 | 0.0 | 0.00 | 0.00 | 0.09 | 58 | 1007.9 |
| 20260904180605 | 84 | 272 | 0.0 | 0.0 | 0.00 | 0.00 | 0.09 | 59 | 1007.9 |
| 20260904180052 | 84 | 272 | 0.0 | 0.0 | 0.00 | 0.00 | 0.09 | 58 | 1007.9 |
| 20260904175554 | 84 | 292 | 0.0 | 0.0 | 0.00 | 0.00 | 0.09 | 58 | 1007.7 |
| 20260904175058 | 84 | 292 | 0.0 | 0.0 | 0.00 | 0.00 | 0.09 | 59 | 1007.7 |
| 20260904174608 | 84 | 292 | 0.0 | 0.0 | 0.00 | 0.00 | 0.09 | 56 | 1007.7 |
| 20260904174104 | 84 | 311 | 0.0 | 0.0 | 0.00 | 0.00 | 0.09 | 59 | 1008.0 |
| 20260904173607 | 84 | 292 | 0.0 | 0.0 | 0.00 | 0.00 | 0.09 | 59 | 1008.0 |
| 20260904173003 | 84 | 333 | 0.0 | 0.0 | 0.00 | 0.00 | 0.09 | 58 | 1008.0 |
| 20260904172506 | 84 | 333 | 0.0 | 0.0 | 0.00 | 0.00 | 0.09 | 59 | 1007.9 |
| 20260904172059 | 83 | 309 | 0.0 | 0.0 | 0.00 | 0.00 | 0.08 | 59 | 1007.9 |
| 20260904171557 | 83 | 275 | 0.0 | 0.0 | 0.00 | 0.00 | 0.08 | 59 | 1007.9 |
| 20260904171050 | 83 | 257 | 0.0 | 0.0 | 0.00 | 0.00 | 0.08 | 59 | 1008.0 |
| 20260904170552 | 84 | 292 | 0.0 | 0.0 | 0.00 | 0.00 | 0.08 | 60 | 1008.0 |
| 20260904165606 | 83 | 352 | 0.0 | 0.0 | 0.00 | 0.00 | 0.08 | 59 | 1008.0 |
| 20260904165003 | 83 | 329 | 0.0 | 0.0 | 0.00 | 0.00 | 0.08 | 60 | 1008.0 |
| 20260904164508 | 83 | 311 | 0.0 | 0.0 | 0.00 | 0.00 | 0.08 | 61 | 1008.0 |
| 20260904164101 | 83 | 306 | 0.0 | 0.0 | 0.00 | 0.00 | 0.08 | 62 | 1007.9 |
| 20260904163604 | 83 | 325 | 0.0 | 0.0 | 0.00 | 0.00 | 0.08 | 62 | 1007.9 |
| 20260904163001 | 82 | 274 | 0.0 | 0.0 | 0.00 | 0.00 | 0.08 | 61 | 1007.9 |
| 20260904162508 | 82 | 294 | 0.0 | 0.0 | 0.00 | 0.00 | 0.08 | 62 | 1008.2 |
| 20260904162059 | 82 | 271 | 0.0 | 0.0 | 0.00 | 0.00 | 0.08 | 62 | 1008.2 |
| 20260904161621 | 82 | 281 | 0.0 | 0.0 | 0.00 | 0.00 | 0.08 | 64 | 1008.2 |
| 20260904161105 | 82 | 281 | 0.0 | 0.0 | 0.00 | 0.00 | 0.07 | 62 | 1008.3 |
| 20260904160502 | 82 | 281 | 0.0 | 0.0 | 0.00 | 0.00 | 0.07 | 64 | 1008.3 |
| 20260904160059 | 81 | 281 | 0.0 | 0.0 | 0.00 | 0.00 | 0.07 | 65 | 1008.3 |
| 20260904155600 | 81 | 281 | 0.0 | 0.0 | 0.00 | 0.00 | 0.07 | 65 | 1008.3 |
| 20260904155103 | 81 | 281 | 0.0 | 0.0 | 0.00 | 0.00 | 0.07 | 65 | 1008.3 |
| 20260904154605 | 81 | 288 | 0.0 | 0.0 | 0.00 | 0.00 | 0.07 | 65 | 1008.3 |
| 20260904154052 | 81 | 288 | 0.0 | 0.0 | 0.00 | 0.00 | 0.07 | 65 | 1008.5 |
| 20260904153600 | 80 | 288 | 0.0 | 0.0 | 0.00 | 0.00 | 0.07 | 65 | 1008.5 |
| 20260904153141 | 80 | 288 | 0.0 | 0.0 | 0.00 | 0.00 | 0.07 | 65 | 1008.5 |
| 20260904152557 | 80 | 272 | 0.0 | 0.0 | 0.00 | 0.00 | 0.07 | 66 | 1008.3 |
| 20260904152104 | 80 | 318 | 0.0 | 0.0 | 0.00 | 0.00 | 0.07 | 65 | 1008.3 |
| 20260904151501 | 80 | 285 | 0.0 | 0.0 | 0.00 | 0.00 | 0.07 | 65 | 1008.3 |
| 20260904151008 | 80 | 281 | 0.0 | 0.0 | 0.00 | 0.00 | 0.07 | 65 | 1008.3 |
| 20260904150559 | 80 | 292 | 0.0 | 0.0 | 0.00 | 0.00 | 0.07 | 67 | 1008.3 |
| 20260904145503 | 79 | 280 | 0.0 | 0.0 | 0.00 | 0.00 | 0.07 | 69 | 1008.2 |
| 20260904145006 | 79 | 287 | 0.0 | 0.0 | 0.00 | 0.00 | 0.07 | 69 | 1008.2 |
| 20260904144557 | 78 | 304 | 0.0 | 0.0 | 0.00 | 0.00 | 0.07 | 71 | 1008.2 |
| 20260904144044 | 78 | 304 | 0.0 | 0.0 | 0.00 | 0.00 | 0.06 | 71 | 1008.3 |
| 20260904143547 | 77 | 294 | 0.0 | 0.0 | 0.00 | 0.00 | 0.06 | 72 | 1008.3 |
| 20260904143051 | 77 | 298 | 0.0 | 0.0 | 0.00 | 0.00 | 0.06 | 74 | 1008.3 |
| 20260904142554 | 77 | 313 | 0.0 | 0.0 | 0.00 | 0.00 | 0.06 | 75 | 1008.1 |
| 20260904142057 | 76 | 306 | 0.0 | 0.0 | 0.00 | 0.00 | 0.06 | 74 | 1008.1 |
| 20260904141503 | 76 | 306 | 0.0 | 0.0 | 0.00 | 0.00 | 0.06 | 75 | 1008.1 |
| 20260904141005 | 76 | 296 | 0.0 | 0.0 | 0.00 | 0.00 | 0.06 | 76 | 1007.9 |
| 20260904140558 | 76 | 295 | 0.0 | 0.0 | 0.00 | 0.00 | 0.06 | 78 | 1007.9 |
| 20260904135606 | 75 | 289 | 0.0 | 0.0 | 0.00 | 0.00 | 0.06 | 79 | 1008.0 |
| 20260904135002 | 75 | 284 | 0.0 | 0.0 | 0.00 | 0.00 | 0.06 | 80 | 1008.0 |
| 20260904134504 | 75 | 301 | 0.0 | 0.0 | 0.00 | 0.00 | 0.06 | 80 | 1008.0 |
| 20260904134058 | 74 | 301 | 0.0 | 0.0 | 0.00 | 0.00 | 0.06 | 80 | 1008.2 |
| 20260904133600 | 74 | 311 | 0.0 | 0.0 | 0.00 | 0.00 | 0.06 | 81 | 1008.2 |
| 20260904133104 | 74 | 282 | 0.0 | 0.0 | 0.00 | 0.00 | 0.06 | 81 | 1008.2 |
| 20260904132501 | 74 | 315 | 0.0 | 0.0 | 0.00 | 0.00 | 0.05 | 83 | 1008.2 |
| 20260904132053 | 73 | 311 | 0.0 | 0.0 | 0.00 | 0.00 | 0.05 | 83 | 1008.2 |
| 20260904131556 | 73 | 299 | 0.0 | 0.0 | 0.00 | 0.00 | 0.05 | 83 | 1008.2 |
| 20260904131045 | 73 | 328 | 0.0 | 0.0 | 0.00 | 0.00 | 0.05 | 83 | 1008.2 |
| 20260904130549 | 73 | 296 | 0.0 | 0.0 | 0.00 | 0.00 | 0.05 | 84 | 1008.2 |
| 20260904130100 | 73 | 298 | 0.0 | 0.0 | 0.00 | 0.00 | 0.05 | 85 | 1008.2 |
| 20260904125603 | 72 | 298 | 0.0 | 0.0 | 0.00 | 0.00 | 0.05 | 86 | 1008.4 |
| 20260904125106 | 72 | 306 | 0.0 | 0.0 | 0.00 | 0.00 | 0.05 | 87 | 1008.4 |
| 20260904124503 | 72 | 308 | 0.0 | 0.0 | 0.00 | 0.00 | 0.05 | 88 | 1008.4 |
| 20260904124055 | 71 | 294 | 0.0 | 0.0 | 0.00 | 0.00 | 0.05 | 88 | 1008.5 |
| 20260904123559 | 71 | 294 | 0.0 | 0.0 | 0.00 | 0.00 | 0.05 | 88 | 1008.5 |
| 20260904123106 | 71 | 320 | 0.0 | 0.0 | 0.00 | 0.00 | 0.05 | 89 | 1008.5 |
| 20260904122505 | 71 | 320 | 0.0 | 0.0 | 0.00 | 0.00 | 0.05 | 90 | 1008.4 |
| 20260904122058 | 71 | 320 | 0.0 | 0.0 | 0.00 | 0.00 | 0.05 | 90 | 1008.4 |
| 20260904121607 | 71 | 320 | 0.0 | 0.0 | 0.00 | 0.00 | 0.05 | 90 | 1008.4 |
| 20260904121004 | 70 | 320 | 0.0 | 0.0 | 0.00 | 0.00 | 0.05 | 91 | 1008.2 |
| 20260904120559 | 70 | 320 | 0.0 | 0.0 | 0.00 | 0.00 | 0.05 | 91 | 1008.2 |
| 20260904120103 | 70 | 320 | 0.0 | 0.0 | 0.00 | 0.00 | 0.05 | 91 | 1008.2 |
| 20260904115605 | 70 | 320 | 0.0 | 0.0 | 0.00 | 0.00 | 0.05 | 91 | 1008.2 |
| 20260904115002 | 70 | 320 | 0.0 | 0.0 | 0.00 | 0.00 | 0.05 | 91 | 1008.2 |
| 20260904114557 | 70 | 320 | 0.0 | 0.0 | 0.00 | 0.00 | 0.05 | 91 | 1008.2 |
| 20260904114059 | 70 | 320 | 0.0 | 0.0 | 0.00 | 0.00 | 0.05 | 91 | 1008.3 |
| 20260904113602 | 70 | 320 | 0.0 | 0.0 | 0.00 | 0.00 | 0.05 | 92 | 1008.3 |
| 20260904113108 | 70 | 320 | 0.0 | 0.0 | 0.00 | 0.00 | 0.05 | 92 | 1008.3 |
| 20260904112555 | 70 | 320 | 0.0 | 0.0 | 0.00 | 0.00 | 0.05 | 92 | 1008.1 |
| 20260904112057 | 70 | 320 | 0.0 | 0.0 | 0.00 | 0.00 | 0.04 | 92 | 1008.1 |
| 20260904111606 | 70 | 320 | 0.0 | 0.0 | 0.00 | 0.00 | 0.04 | 92 | 1008.1 |
| 20260904111106 | 70 | 320 | 0.0 | 0.0 | 0.00 | 0.00 | 0.04 | 92 | 1007.8 |
| 20260904110608 | 70 | 320 | 0.0 | 0.0 | 0.00 | 0.00 | 0.04 | 93 | 1007.8 |
| 20260904110055 | 70 | 320 | 0.0 | 0.0 | 0.00 | 0.00 | 0.04 | 93 | 1007.8 |
| 20260904105559 | 70 | 320 | 0.0 | 0.0 | 0.00 | 0.00 | 0.04 | 93 | 1007.6 |
| 20260904105059 | 70 | 320 | 0.0 | 0.0 | 0.00 | 0.00 | 0.04 | 94 | 1007.6 |
| 20260904104607 | 70 | 320 | 0.0 | 0.0 | 0.00 | 0.00 | 0.04 | 95 | 1007.6 |
| 20260904104107 | 70 | 320 | 0.0 | 0.0 | 0.00 | 0.00 | 0.04 | 95 | 1007.3 |
| 20260904103554 | 70 | 320 | 0.0 | 0.0 | 0.00 | 0.00 | 0.04 | 96 | 1007.3 |
| 20260904103109 | 70 | 320 | 0.0 | 0.0 | 0.00 | 0.00 | 0.04 | 96 | 1007.3 |
| 20260904102600 | 70 | 320 | 0.0 | 0.0 | 0.00 | 0.00 | 0.04 | 96 | 1007.1 |
| 20260904102103 | 70 | 320 | 0.0 | 0.0 | 0.00 | 0.00 | 0.04 | 97 | 1007.1 |
| 20260904101606 | 70 | 320 | 0.0 | 0.0 | 0.00 | 0.00 | 0.04 | 97 | 1007.1 |
| 20260904101003 | 70 | 320 | 0.0 | 0.0 | 0.00 | 0.00 | 0.04 | 97 | 1007.2 |
| 20260904100510 | 70 | 320 | 0.0 | 0.0 | 0.00 | 0.00 | 0.04 | 97 | 1007.2 |
| 20260904100101 | 70 | 320 | 0.0 | 0.0 | 0.00 | 0.00 | 0.04 | 97 | 1007.2 |
| 20260904095603 | 70 | 320 | 0.0 | 0.0 | 0.00 | 0.00 | 0.04 | 97 | 1007.3 |
| 20260904095109 | 70 | 320 | 0.0 | 0.0 | 0.00 | 0.00 | 0.03 | 98 | 1007.3 |
| 20260904094503 | 70 | 320 | 0.0 | 0.0 | 0.00 | 0.00 | 0.03 | 98 | 1007.3 |
| 20260904094006 | 70 | 320 | 0.0 | 0.0 | 0.00 | 0.00 | 0.03 | 98 | 1007.3 |
| 20260904093600 | 71 | 320 | 0.0 | 0.0 | 0.00 | 0.00 | 0.03 | 98 | 1007.3 |
| 20260904093053 | 71 | 320 | 0.0 | 0.0 | 0.00 | 0.00 | 0.03 | 98 | 1007.3 |
| 20260904092540 | 71 | 320 | 0.0 | 0.0 | 0.00 | 0.00 | 0.03 | 98 | 1007.6 |
| 20260904092050 | 71 | 320 | 0.0 | 0.0 | 0.00 | 0.00 | 0.03 | 98 | 1007.6 |
| 20260904091608 | 71 | 320 | 0.0 | 0.0 | 0.00 | 0.00 | 0.03 | 98 | 1007.6 |
| 20260904091106 | 71 | 320 | 0.0 | 0.0 | 0.00 | 0.00 | 0.03 | 98 | 1007.8 |
| 20260904090555 | 71 | 320 | 0.0 | 0.0 | 0.00 | 0.00 | 0.03 | 98 | 1007.8 |
| 20260904090043 | 71 | 320 | 0.0 | 0.0 | 0.00 | 0.00 | 0.03 | 98 | 1007.8 |
| 20260904085546 | 71 | 320 | 0.0 | 0.0 | 0.00 | 0.00 | 0.03 | 98 | 1007.7 |
| 20260904085049 | 71 | 320 | 0.0 | 0.0 | 0.00 | 0.00 | 0.03 | 98 | 1007.7 |
| 20260904084605 | 71 | 320 | 0.0 | 0.0 | 0.00 | 0.00 | 0.03 | 98 | 1007.7 |
| 20260904084104 | 72 | 320 | 0.0 | 0.0 | 0.00 | 0.00 | 0.03 | 98 | 1007.7 |
| 20260904083502 | 72 | 320 | 0.0 | 0.0 | 0.00 | 0.00 | 0.03 | 98 | 1007.7 |
| 20260904083109 | 72 | 320 | 0.0 | 0.0 | 0.00 | 0.00 | 0.03 | 98 | 1007.7 |
| 20260904082559 | 72 | 320 | 0.0 | 0.0 | 0.00 | 0.00 | 0.03 | 98 | 1007.8 |
| 20260904082101 | 72 | 320 | 0.0 | 0.0 | 0.00 | 0.00 | 0.03 | 98 | 1007.8 |
| 20260904081604 | 72 | 320 | 0.0 | 0.0 | 0.00 | 0.00 | 0.03 | 98 | 1007.8 |
| 20260904081006 | 72 | 320 | 0.0 | 0.0 | 0.00 | 0.00 | 0.03 | 98 | 1007.9 |
| 20260904080601 | 73 | 320 | 0.0 | 0.0 | 0.00 | 0.00 | 0.03 | 98 | 1007.9 |
| 20260904080049 | 73 | 320 | 0.0 | 0.0 | 0.00 | 0.00 | 0.03 | 98 | 1007.9 |
| 20260904075552 | 73 | 320 | 0.0 | 0.0 | 0.00 | 0.00 | 0.03 | 98 | 1007.9 |
| 20260904075054 | 73 | 320 | 0.0 | 0.0 | 0.00 | 0.00 | 0.03 | 98 | 1007.9 |
| 20260904074601 | 73 | 320 | 0.0 | 0.0 | 0.00 | 0.00 | 0.03 | 98 | 1007.9 |
| 20260904074045 | 73 | 320 | 0.0 | 0.0 | 0.00 | 0.00 | 0.02 | 98 | 1007.7 |
| 20260904073550 | 73 | 320 | 0.0 | 0.0 | 0.00 | 0.00 | 0.02 | 98 | 1007.7 |
| 20260904073053 | 73 | 320 | 0.0 | 0.0 | 0.00 | 0.00 | 0.02 | 98 | 1007.7 |
| 20260904072559 | 73 | 320 | 0.0 | 0.0 | 0.00 | 0.00 | 0.02 | 98 | 1007.6 |
| 20260904072101 | 73 | 320 | 0.0 | 0.0 | 0.00 | 0.00 | 0.02 | 98 | 1007.6 |
| 20260904071605 | 73 | 320 | 0.0 | 0.0 | 0.00 | 0.00 | 0.02 | 98 | 1007.6 |
| 20260904071002 | 73 | 320 | 0.0 | 0.0 | 0.00 | 0.00 | 0.02 | 98 | 1007.1 |
| 20260904070506 | 73 | 320 | 0.0 | 0.0 | 0.00 | 0.00 | 0.02 | 98 | 1007.1 |
| 20260904070011 | 73 | 320 | 0.0 | 0.0 | 0.00 | 0.00 | 0.02 | 98 | 1007.1 |
| 20260904065514 | 73 | 320 | 0.0 | 0.0 | 0.00 | 0.00 | 0.02 | 98 | 1006.8 |
| 20260904065106 | 73 | 320 | 0.0 | 0.0 | 0.00 | 0.00 | 0.02 | 98 | 1006.8 |
| 20260904064507 | 73 | 320 | 0.0 | 0.0 | 0.00 | 0.00 | 0.02 | 98 | 1006.8 |
| 20260904064005 | 73 | 320 | 0.0 | 0.0 | 0.00 | 0.00 | 0.02 | 98 | 1006.6 |
| 20260904063511 | 73 | 320 | 0.0 | 0.0 | 0.00 | 0.00 | 0.02 | 98 | 1006.6 |
| 20260904063111 | 73 | 320 | 0.0 | 0.0 | 0.00 | 0.00 | 0.02 | 98 | 1006.6 |
| 20260904062552 | 73 | 320 | 0.0 | 0.0 | 0.00 | 0.00 | 0.02 | 98 | 1006.7 |
| 20260904062100 | 73 | 320 | 0.0 | 0.0 | 0.00 | 0.00 | 0.02 | 98 | 1006.7 |
| 20260904061555 | 73 | 320 | 0.0 | 0.0 | 0.00 | 0.00 | 0.01 | 98 | 1006.7 |
| 20260904061059 | 73 | 320 | 0.0 | 0.0 | 0.00 | 0.00 | 0.01 | 98 | 1006.9 |
| 20260904060607 | 73 | 320 | 0.0 | 0.0 | 0.00 | 0.00 | 0.01 | 98 | 1006.9 |
| 20260904060009 | 73 | 320 | 0.0 | 0.0 | 0.00 | 0.00 | 0.01 | 97 | 1006.9 |
| 20260904055558 | 73 | 320 | 0.0 | 0.0 | 0.00 | 0.00 | 0.01 | 97 | 1007.0 |
| 20260904055101 | 73 | 320 | 0.0 | 0.0 | 0.00 | 0.00 | 0.01 | 97 | 1007.0 |
| 20260904054604 | 73 | 320 | 0.0 | 0.0 | 0.00 | 0.00 | 0.01 | 97 | 1007.0 |
| 20260904054001 | 73 | 320 | 0.0 | 0.0 | 0.00 | 0.00 | 0.01 | 97 | 1007.4 |
| 20260904053553 | 73 | 320 | 0.0 | 0.0 | 0.00 | 0.00 | 0.01 | 97 | 1007.4 |
| 20260904053100 | 73 | 320 | 0.0 | 0.0 | 0.00 | 0.00 | 0.01 | 97 | 1007.4 |
| 20260904052604 | 73 | 320 | 0.0 | 0.0 | 0.00 | 0.00 | 0.01 | 97 | 1007.1 |
| 20260904052001 | 73 | 320 | 0.0 | 0.0 | 0.00 | 0.00 | 0.01 | 97 | 1007.1 |
| 20260904051601 | 73 | 320 | 0.0 | 0.0 | 0.00 | 0.00 | 0.01 | 97 | 1007.1 |
| 20260904051058 | 73 | 320 | 0.0 | 0.0 | 0.00 | 0.00 | 0.01 | 96 | 1007.4 |
| 20260904050601 | 73 | 320 | 0.0 | 0.0 | 0.00 | 0.00 | 0.01 | 96 | 1007.4 |
| 20260904050004 | 73 | 320 | 0.0 | 0.0 | 0.00 | 0.00 | 0.01 | 96 | 1007.4 |
| 20260904045505 | 73 | 320 | 0.0 | 0.0 | 0.00 | 0.00 | 0.01 | 96 | 1007.2 |
| 20260904045008 | 73 | 320 | 0.0 | 0.0 | 0.00 | 0.00 | 0.01 | 96 | 1007.2 |
| 20260904044512 | 73 | 320 | 0.0 | 0.0 | 0.00 | 0.00 | 0.01 | 96 | 1007.2 |
| 20260904044107 | 73 | 320 | 0.0 | 0.0 | 0.00 | 0.00 | 0.01 | 96 | 1007.2 |
| 20260904043508 | 73 | 320 | 0.0 | 0.0 | 0.00 | 0.00 | 0.01 | 96 | 1007.2 |
| 20260904043010 | 73 | 320 | 0.0 | 0.0 | 0.00 | 0.00 | 0.01 | 95 | 1007.2 |
| 20260904042604 | 73 | 320 | 0.0 | 0.0 | 0.00 | 0.00 | 0.00 | 95 | 1007.5 |
| 20260904042108 | 73 | 320 | 0.0 | 0.0 | 0.00 | 0.00 | 0.00 | 95 | 1007.5 |
| 20260904041502 | 74 | 320 | 0.0 | 0.0 | 0.00 | 0.00 | 0.00 | 95 | 1007.5 |
| 20260904041006 | 74 | 320 | 0.0 | 0.0 | 0.00 | 0.00 | 0.00 | 94 | 1008.2 |
| 20260904040508 | 74 | 320 | 0.0 | 0.0 | 0.00 | 0.00 | 0.00 | 94 | 1008.2 |
| 20260904040111 | 74 | 320 | 0.0 | 0.0 | 0.00 | 0.00 | 0.00 | 94 | 1008.2 |
| 20260904035606 | 74 | 320 | 0.0 | 0.0 | 0.00 | 0.00 | 0.15 | 93 | 1009.4 |
| 20260904035003 | 74 | 320 | 0.0 | 0.0 | 0.00 | 0.00 | 0.15 | 93 | 1009.4 |
| 20260904034505 | 74 | 320 | 0.0 | 0.0 | 0.00 | 0.00 | 0.15 | 92 | 1009.4 |
| 20260904034008 | 75 | 288 | 0.0 | 0.0 | 0.00 | 0.00 | 0.15 | 93 | 1008.4 |
| 20260904033605 | 75 | 294 | 0.0 | 0.0 | 0.00 | 0.00 | 0.15 | 93 | 1008.4 |
| 20260904033002 | 75 | 288 | 0.0 | 0.0 | 0.00 | 0.00 | 0.15 | 92 | 1008.4 |
| 20260904032508 | 75 | 7 | 0.0 | 0.0 | 0.00 | 0.00 | 0.15 | 92 | 1008.4 |
| 20260904032100 | 75 | 7 | 0.0 | 0.0 | 0.00 | 0.00 | 0.14 | 92 | 1008.4 |
| 20260904031603 | 75 | 7 | 0.0 | 0.0 | 0.00 | 0.00 | 0.14 | 92 | 1008.4 |
| 20260904031109 | 75 | 7 | 0.0 | 0.0 | 0.00 | 0.00 | 0.14 | 92 | 1008.5 |
| 20260904030503 | 75 | 7 | 0.0 | 0.0 | 0.00 | 0.00 | 0.14 | 91 | 1008.5 |
| 20260904030006 | 75 | 7 | 0.0 | 0.0 | 0.00 | 0.00 | 0.14 | 91 | 1008.5 |
| 20260904025600 | 75 | 7 | 0.0 | 0.0 | 0.00 | 0.00 | 0.14 | 91 | 1008.5 |
| 20260904025103 | 75 | 7 | 0.0 | 0.0 | 0.00 | 0.00 | 0.14 | 91 | 1008.5 |
| 20260904024609 | 75 | 7 | 0.0 | 0.0 | 0.00 | 0.00 | 0.14 | 91 | 1008.5 |
| 20260904024003 | 75 | 7 | 0.0 | 0.0 | 0.00 | 0.00 | 0.14 | 90 | 1008.6 |
| 20260904023556 | 75 | 7 | 0.0 | 0.0 | 0.00 | 0.00 | 0.14 | 90 | 1008.6 |
| 20260904023100 | 75 | 7 | 0.0 | 0.0 | 0.00 | 0.00 | 0.14 | 90 | 1008.6 |
| 20260904022604 | 76 | 7 | 0.0 | 0.0 | 0.00 | 0.00 | 0.14 | 89 | 1008.3 |
| 20260904022106 | 76 | 7 | 0.0 | 0.0 | 0.00 | 0.00 | 0.14 | 89 | 1008.3 |
| 20260904021502 | 76 | 7 | 0.0 | 0.0 | 0.00 | 0.00 | 0.14 | 88 | 1008.3 |
| 20260904021054 | 76 | 7 | 0.0 | 0.0 | 0.00 | 0.00 | 0.14 | 88 | 1008.4 |
| 20260904020559 | 76 | 7 | 0.0 | 0.0 | 0.00 | 0.00 | 0.14 | 88 | 1008.4 |
| 20260904020100 | 76 | 7 | 0.0 | 0.0 | 0.00 | 0.00 | 0.14 | 87 | 1008.4 |
| 20260904015603 | 76 | 7 | 0.0 | 0.0 | 0.00 | 0.00 | 0.14 | 87 | 1008.4 |
| 20260904015003 | 76 | 7 | 0.0 | 0.0 | 0.00 | 0.00 | 0.14 | 86 | 1008.4 |
| 20260904014504 | 76 | 7 | 0.0 | 0.0 | 0.00 | 0.00 | 0.14 | 86 | 1008.4 |
| 20260904014007 | 77 | 7 | 0.0 | 0.0 | 0.00 | 0.00 | 0.14 | 86 | 1008.6 |
| 20260904013510 | 77 | 7 | 0.0 | 0.0 | 0.00 | 0.00 | 0.14 | 85 | 1008.6 |
| 20260904013104 | 77 | 7 | 0.0 | 0.0 | 0.00 | 0.00 | 0.14 | 84 | 1008.6 |
| 20260904012502 | 77 | 7 | 0.0 | 0.0 | 0.00 | 0.00 | 0.13 | 84 | 1008.9 |
| 20260904012005 | 77 | 7 | 0.0 | 0.0 | 0.00 | 0.00 | 0.13 | 84 | 1008.9 |
| 20260904011509 | 77 | 7 | 0.0 | 0.0 | 0.00 | 0.00 | 0.13 | 85 | 1008.9 |
| 20260904011100 | 77 | 7 | 0.0 | 0.0 | 0.00 | 0.00 | 0.13 | 85 | 1009.1 |
| 20260904010606 | 77 | 7 | 0.0 | 0.0 | 0.00 | 0.00 | 0.13 | 85 | 1009.1 |
| 20260904010005 | 77 | 7 | 0.0 | 0.0 | 0.00 | 0.00 | 0.13 | 86 | 1009.1 |
| 20260904005505 | 77 | 7 | 0.0 | 0.0 | 0.00 | 0.00 | 0.13 | 86 | 1008.9 |
| 20260904005008 | 77 | 7 | 0.0 | 0.0 | 0.00 | 0.00 | 0.13 | 87 | 1008.9 |
| 20260904004604 | 76 | 7 | 0.0 | 0.0 | 0.00 | 0.00 | 0.13 | 88 | 1008.9 |
| 20260904004106 | 76 | 7 | 0.0 | 0.0 | 0.00 | 0.00 | 0.13 | 88 | 1008.9 |
| 20260904003510 | 77 | 7 | 0.0 | 0.0 | 0.00 | 0.00 | 0.13 | 87 | 1008.9 |
| 20260904003104 | 77 | 7 | 0.0 | 0.0 | 0.00 | 0.00 | 0.13 | 87 | 1008.9 |
| 20260904002504 | 77 | 7 | 0.0 | 0.0 | 0.00 | 0.00 | 0.13 | 87 | 1008.8 |
| 20260904002011 | 77 | 7 | 0.0 | 0.0 | 0.00 | 0.00 | 0.13 | 87 | 1008.8 |
| 20260904001515 | 77 | 7 | 0.0 | 0.0 | 0.00 | 0.00 | 0.13 | 86 | 1008.8 |
| 20260904001104 | 77 | 7 | 0.0 | 0.0 | 0.00 | 0.00 | 0.13 | 86 | 1008.4 |
| 20260904000501 | 77 | 7 | 0.0 | 0.0 | 0.00 | 0.00 | 0.12 | 85 | 1008.4 |
| 20260904000009 | 77 | 7 | 0.0 | 0.0 | 0.00 | 0.00 | 0.12 | 84 | 1008.4 |
| 20260903235507 | 78 | 7 | 0.0 | 0.0 | 0.00 | 0.00 | 0.12 | 84 | 1008.4 |
| 20260903235103 | 78 | 7 | 0.0 | 0.0 | 0.00 | 0.00 | 0.12 | 84 | 1008.4 |
| 20260903234550 | 78 | 7 | 0.0 | 0.0 | 0.00 | 0.00 | 0.12 | 84 | 1008.4 |
| 20260903234101 | 78 | 7 | 0.0 | 0.0 | 0.00 | 0.00 | 0.12 | 84 | 1008.5 |
| 20260903233604 | 78 | 7 | 0.0 | 0.0 | 0.00 | 0.00 | 0.12 | 84 | 1008.5 |
| 20260903233002 | 78 | 7 | 0.0 | 0.0 | 0.00 | 0.00 | 0.12 | 83 | 1008.5 |
| 20260903232508 | 79 | 7 | 0.0 | 0.0 | 0.00 | 0.00 | 0.12 | 83 | 1008.3 |
| 20260903232059 | 79 | 7 | 0.0 | 0.0 | 0.00 | 0.00 | 0.12 | 83 | 1008.3 |
| 20260903231602 | 79 | 7 | 0.0 | 0.0 | 0.00 | 0.00 | 0.12 | 82 | 1008.3 |
| 20260903231108 | 79 | 7 | 0.0 | 0.0 | 0.00 | 0.00 | 0.12 | 81 | 1008.3 |
| 20260903230503 | 79 | 7 | 0.0 | 0.0 | 0.00 | 0.00 | 0.12 | 80 | 1008.3 |
| 20260903230100 | 80 | 7 | 0.0 | 0.0 | 0.00 | 0.00 | 0.12 | 80 | 1008.3 |
| 20260903225603 | 80 | 7 | 0.0 | 0.0 | 0.00 | 0.00 | 0.12 | 80 | 1008.1 |
| 20260903225105 | 80 | 7 | 0.0 | 0.0 | 0.00 | 0.00 | 0.12 | 79 | 1008.1 |
| 20260903224504 | 80 | 7 | 0.0 | 0.0 | 0.00 | 0.00 | 0.12 | 78 | 1008.1 |
| 20260903224057 | 81 | 7 | 0.0 | 0.0 | 0.00 | 0.00 | 0.12 | 78 | 1007.9 |
| 20260903223600 | 81 | 7 | 0.0 | 0.0 | 0.00 | 0.00 | 0.11 | 77 | 1007.9 |
| 20260903223116 | 81 | 7 | 0.0 | 0.0 | 0.00 | 0.00 | 0.11 | 77 | 1007.9 |
| 20260903222501 | 81 | 7 | 0.0 | 0.0 | 0.00 | 0.00 | 0.11 | 77 | 1008.0 |
| 20260903222055 | 81 | 7 | 0.0 | 0.0 | 0.00 | 0.00 | 0.11 | 77 | 1008.0 |
| 20260903221558 | 81 | 7 | 0.0 | 0.0 | 0.00 | 0.00 | 0.11 | 78 | 1008.0 |
| 20260903221101 | 81 | 7 | 0.0 | 0.0 | 0.00 | 0.00 | 0.11 | 78 | 1008.1 |
| 20260903220605 | 81 | 7 | 0.0 | 0.0 | 0.00 | 0.00 | 0.11 | 78 | 1008.1 |
| 20260903220122 | 81 | 7 | 0.0 | 0.0 | 0.00 | 0.00 | 0.11 | 78 | 1008.1 |
| 20260903215559 | 81 | 7 | 0.0 | 0.0 | 0.00 | 0.00 | 0.11 | 78 | 1007.9 |
| 20260903215103 | 81 | 7 | 0.0 | 0.0 | 0.00 | 0.00 | 0.11 | 77 | 1007.9 |
| 20260903214506 | 82 | 7 | 0.0 | 0.0 | 0.00 | 0.00 | 0.11 | 77 | 1007.9 |
| 20260903214058 | 82 | 7 | 0.0 | 0.0 | 0.00 | 0.00 | 0.11 | 77 | 1007.7 |